Year,Month,Day,Hour,Minute,Value (Times are PST for temperature in C)
2005,09,24,00,00,6.70
2005,09,24,00,01,6.70
2005,09,24,00,02,6.70
2005,09,24,00,03,6.70
2005,09,24,00,04,6.70
2005,09,24,00,05,6.70
2005,09,24,00,06,6.70
2005,09,24,00,07,6.70
2005,09,24,00,08,6.70
2005,09,24,00,09,6.70
2005,09,24,00,10,6.80
2005,09,24,00,11,6.80
2005,09,24,00,12,6.80
2005,09,24,00,13,6.80
2005,09,24,00,14,6.80
2005,09,24,00,15,6.80
2005,09,24,00,16,6.90
2005,09,24,00,17,6.90
2005,09,24,00,18,6.90
2005,09,24,00,19,6.90
2005,09,24,00,20,6.80
2005,09,24,00,21,6.80
2005,09,24,00,22,6.80
2005,09,24,00,23,6.80
2005,09,24,00,24,6.80
2005,09,24,00,25,6.70
2005,09,24,00,26,6.70
2005,09,24,00,27,6.60
2005,09,24,00,28,6.60
2005,09,24,00,29,6.60
2005,09,24,00,30,6.60
2005,09,24,00,31,6.50
2005,09,24,00,32,6.40
2005,09,24,00,33,6.40
2005,09,24,00,34,6.40
2005,09,24,00,35,6.40
2005,09,24,00,36,6.40
2005,09,24,00,37,6.40
2005,09,24,00,38,6.40
2005,09,24,00,39,6.40
2005,09,24,00,40,6.40
2005,09,24,00,41,6.40
2005,09,24,00,42,6.40
2005,09,24,00,43,6.40
2005,09,24,00,44,6.40
2005,09,24,00,45,6.40
2005,09,24,00,46,6.40
2005,09,24,00,47,6.40
2005,09,24,00,48,6.40
2005,09,24,00,49,6.40
2005,09,24,00,50,6.40
2005,09,24,00,51,6.30
2005,09,24,00,52,6.30
2005,09,24,00,53,6.20
2005,09,24,00,54,6.20
2005,09,24,00,55,6.20
2005,09,24,00,56,6.20
2005,09,24,00,57,6.20
2005,09,24,00,58,6.20
2005,09,24,00,59,6.20
2005,09,24,01,00,6.20
2005,09,24,01,01,6.20
2005,09,24,01,02,6.20
2005,09,24,01,03,6.20
2005,09,24,01,04,6.20
2005,09,24,01,05,6.20
2005,09,24,01,06,6.20
2005,09,24,01,07,6.20
2005,09,24,01,08,6.20
2005,09,24,01,09,6.10
2005,09,24,01,10,6.10
2005,09,24,01,11,6.10
2005,09,24,01,12,6.10
2005,09,24,01,13,6.10
2005,09,24,01,14,6.00
2005,09,24,01,15,6.00
2005,09,24,01,16,6.00
2005,09,24,01,17,6.00
2005,09,24,01,18,6.00
2005,09,24,01,19,6.00
2005,09,24,01,20,6.00
2005,09,24,01,21,6.00
2005,09,24,01,22,6.00
2005,09,24,01,23,6.00
2005,09,24,01,24,6.00
2005,09,24,01,25,6.00
2005,09,24,01,26,6.00
2005,09,24,01,27,5.90
2005,09,24,01,28,5.90
2005,09,24,01,29,5.90
2005,09,24,01,30,5.90
2005,09,24,01,31,5.90
2005,09,24,01,32,5.90
2005,09,24,01,33,5.90
2005,09,24,01,34,5.80
2005,09,24,01,35,5.80
2005,09,24,01,36,5.80
2005,09,24,01,37,5.80
2005,09,24,01,38,5.80
2005,09,24,01,39,5.90
2005,09,24,01,40,5.90
2005,09,24,01,41,5.90
2005,09,24,01,42,5.90
2005,09,24,01,43,5.90
2005,09,24,01,44,5.90
2005,09,24,01,45,6.00
2005,09,24,01,46,6.00
2005,09,24,01,47,6.00
2005,09,24,01,48,6.10
2005,09,24,01,49,6.10
2005,09,24,01,50,6.20
2005,09,24,01,51,6.20
2005,09,24,01,52,6.20
2005,09,24,01,53,6.20
2005,09,24,01,54,6.20
2005,09,24,01,55,6.20
2005,09,24,01,56,6.20
2005,09,24,01,57,6.10
2005,09,24,01,58,6.10
2005,09,24,01,59,6.00
2005,09,24,02,00,6.00
2005,09,24,02,01,6.00
2005,09,24,02,02,5.90
2005,09,24,02,03,5.90
2005,09,24,02,04,5.90
2005,09,24,02,05,5.90
2005,09,24,02,06,5.90
2005,09,24,02,07,6.00
2005,09,24,02,08,6.00
2005,09,24,02,09,6.00
2005,09,24,02,10,6.10
2005,09,24,02,11,6.20
2005,09,24,02,12,6.20
2005,09,24,02,13,6.20
2005,09,24,02,14,6.20
2005,09,24,02,15,6.30
2005,09,24,02,16,6.30
2005,09,24,02,17,6.30
2005,09,24,02,18,6.30
2005,09,24,02,19,6.40
2005,09,24,02,20,6.40
2005,09,24,02,21,6.40
2005,09,24,02,22,6.40
2005,09,24,02,23,6.30
2005,09,24,02,24,6.30
2005,09,24,02,25,6.30
2005,09,24,02,26,6.20
2005,09,24,02,27,6.20
2005,09,24,02,28,6.20
2005,09,24,02,29,6.20
2005,09,24,02,30,6.20
2005,09,24,02,31,6.20
2005,09,24,02,32,6.10
2005,09,24,02,33,6.10
2005,09,24,02,34,6.00
2005,09,24,02,35,6.00
2005,09,24,02,36,5.90
2005,09,24,02,37,5.80
2005,09,24,02,38,5.80
2005,09,24,02,39,5.70
2005,09,24,02,40,5.70
2005,09,24,02,41,5.70
2005,09,24,02,42,5.70
2005,09,24,02,43,5.60
2005,09,24,02,44,5.60
2005,09,24,02,45,5.60
2005,09,24,02,46,5.60
2005,09,24,02,47,5.50
2005,09,24,02,48,5.50
2005,09,24,02,49,5.50
2005,09,24,02,50,5.50
2005,09,24,02,51,5.60
2005,09,24,02,52,5.60
2005,09,24,02,53,5.60
2005,09,24,02,54,5.70
2005,09,24,02,55,5.70
2005,09,24,02,56,5.70
2005,09,24,02,57,5.70
2005,09,24,02,58,5.70
2005,09,24,02,59,5.80
2005,09,24,03,00,5.80
2005,09,24,03,01,5.80
2005,09,24,03,02,5.80
2005,09,24,03,03,5.80
2005,09,24,03,04,5.90
2005,09,24,03,05,5.90
2005,09,24,03,06,5.90
2005,09,24,03,07,5.90
2005,09,24,03,08,5.90
2005,09,24,03,09,5.90
2005,09,24,03,10,5.90
2005,09,24,03,11,5.90
2005,09,24,03,12,5.80
2005,09,24,03,13,5.80
2005,09,24,03,14,5.70
2005,09,24,03,15,5.70
2005,09,24,03,16,5.70
2005,09,24,03,17,5.70
2005,09,24,03,18,5.60
2005,09,24,03,19,5.60
2005,09,24,03,20,5.60
2005,09,24,03,21,5.50
2005,09,24,03,22,5.50
2005,09,24,03,23,5.50
2005,09,24,03,24,5.50
2005,09,24,03,25,5.50
2005,09,24,03,26,5.50
2005,09,24,03,27,5.50
2005,09,24,03,28,5.60
2005,09,24,03,29,5.60
2005,09,24,03,30,5.60
2005,09,24,03,31,5.50
2005,09,24,03,32,5.50
2005,09,24,03,33,5.50
2005,09,24,03,34,5.40
2005,09,24,03,35,5.30
2005,09,24,03,36,5.30
2005,09,24,03,37,5.30
2005,09,24,03,38,5.30
2005,09,24,03,39,5.20
2005,09,24,03,40,5.20
2005,09,24,03,41,5.20
2005,09,24,03,42,5.20
2005,09,24,03,43,5.20
2005,09,24,03,44,5.10
2005,09,24,03,45,5.10
2005,09,24,03,46,5.10
2005,09,24,03,47,5.10
2005,09,24,03,48,5.10
2005,09,24,03,49,5.10
2005,09,24,03,50,5.10
2005,09,24,03,51,5.10
2005,09,24,03,52,5.10
2005,09,24,03,53,5.10
2005,09,24,03,54,5.10
2005,09,24,03,55,5.10
2005,09,24,03,56,5.10
2005,09,24,03,57,5.10
2005,09,24,03,58,5.10
2005,09,24,03,59,5.10
2005,09,24,04,00,5.20
2005,09,24,04,01,5.20
2005,09,24,04,02,5.20
2005,09,24,04,03,5.10
2005,09,24,04,04,5.10
2005,09,24,04,05,5.10
2005,09,24,04,06,5.10
2005,09,24,04,07,5.10
2005,09,24,04,08,5.00
2005,09,24,04,09,4.90
2005,09,24,04,10,4.90
2005,09,24,04,11,4.90
2005,09,24,04,12,4.90
2005,09,24,04,13,4.90
2005,09,24,04,14,4.90
2005,09,24,04,15,4.90
2005,09,24,04,16,4.90
2005,09,24,04,17,4.80
2005,09,24,04,18,4.80
2005,09,24,04,19,4.80
2005,09,24,04,20,4.80
2005,09,24,04,21,4.70
2005,09,24,04,22,4.70
2005,09,24,04,23,4.70
2005,09,24,04,24,4.70
2005,09,24,04,25,4.70
2005,09,24,04,26,4.70
2005,09,24,04,27,4.70
2005,09,24,04,28,4.80
2005,09,24,04,29,4.80
2005,09,24,04,30,4.90
2005,09,24,04,31,4.90
2005,09,24,04,32,4.90
2005,09,24,04,33,4.90
2005,09,24,04,34,4.90
2005,09,24,04,35,5.00
2005,09,24,04,36,5.10
2005,09,24,04,37,5.10
2005,09,24,04,38,5.10
2005,09,24,04,39,5.10
2005,09,24,04,40,5.10
2005,09,24,04,41,5.10
2005,09,24,04,42,5.10
2005,09,24,04,43,5.10
2005,09,24,04,44,5.10
2005,09,24,04,45,5.10
2005,09,24,04,46,5.10
2005,09,24,04,47,5.10
2005,09,24,04,48,5.00
2005,09,24,04,49,4.90
2005,09,24,04,50,4.90
2005,09,24,04,51,4.90
2005,09,24,04,52,4.90
2005,09,24,04,53,4.90
2005,09,24,04,54,4.90
2005,09,24,04,55,4.90
2005,09,24,04,56,4.90
2005,09,24,04,57,4.80
2005,09,24,04,58,4.70
2005,09,24,04,59,4.60
2005,09,24,05,00,4.60
2005,09,24,05,01,4.50
2005,09,24,05,02,4.50
2005,09,24,05,03,4.40
2005,09,24,05,04,4.40
2005,09,24,05,05,4.30
2005,09,24,05,06,4.30
2005,09,24,05,07,4.30
2005,09,24,05,08,4.30
2005,09,24,05,09,4.30
2005,09,24,05,10,4.30
2005,09,24,05,11,4.30
2005,09,24,05,12,4.30
2005,09,24,05,13,4.30
2005,09,24,05,14,4.30
2005,09,24,05,15,4.30
2005,09,24,05,16,4.30
2005,09,24,05,17,4.20
2005,09,24,05,18,4.20
2005,09,24,05,19,4.20
2005,09,24,05,20,4.20
2005,09,24,05,21,4.30
2005,09,24,05,22,4.30
2005,09,24,05,23,4.30
2005,09,24,05,24,4.30
2005,09,24,05,25,4.30
2005,09,24,05,26,4.30
2005,09,24,05,27,4.30
2005,09,24,05,28,4.30
2005,09,24,05,29,4.30
2005,09,24,05,30,4.30
2005,09,24,05,31,4.30
2005,09,24,05,32,4.30
2005,09,24,05,33,4.20
2005,09,24,05,34,4.20
2005,09,24,05,35,4.20
2005,09,24,05,36,4.20
2005,09,24,05,37,4.20
2005,09,24,05,38,4.20
2005,09,24,05,39,4.20
2005,09,24,05,40,4.20
2005,09,24,05,41,4.20
2005,09,24,05,42,4.20
2005,09,24,05,43,4.20
2005,09,24,05,44,4.20
2005,09,24,05,45,4.20
2005,09,24,05,46,4.10
2005,09,24,05,47,4.10
2005,09,24,05,48,4.10
2005,09,24,05,49,4.10
2005,09,24,05,50,4.10
2005,09,24,05,51,4.00
2005,09,24,05,52,4.00
2005,09,24,05,53,4.00
2005,09,24,05,54,4.00
2005,09,24,05,55,4.00
2005,09,24,05,56,4.00
2005,09,24,05,57,4.00
2005,09,24,05,58,4.00
2005,09,24,05,59,4.00
2005,09,24,06,00,4.00
2005,09,24,06,01,4.00
2005,09,24,06,02,4.00
2005,09,24,06,03,4.00
2005,09,24,06,04,4.00
2005,09,24,06,05,3.90
2005,09,24,06,06,3.90
2005,09,24,06,07,3.90
2005,09,24,06,08,3.90
2005,09,24,06,09,3.90
2005,09,24,06,10,3.90
2005,09,24,06,11,3.90
2005,09,24,06,12,3.90
2005,09,24,06,13,3.90
2005,09,24,06,14,3.90
2005,09,24,06,15,3.90
2005,09,24,06,16,3.90
2005,09,24,06,17,3.90
2005,09,24,06,18,3.90
2005,09,24,06,19,3.90
2005,09,24,06,20,3.90
2005,09,24,06,21,3.90
2005,09,24,06,22,3.90
2005,09,24,06,23,3.90
2005,09,24,06,24,3.90
2005,09,24,06,25,3.90
2005,09,24,06,26,4.00
2005,09,24,06,27,4.00
2005,09,24,06,28,4.00
2005,09,24,06,29,4.00
2005,09,24,06,30,4.00
2005,09,24,06,31,4.00
2005,09,24,06,32,4.00
2005,09,24,06,33,4.00
2005,09,24,06,34,3.90
2005,09,24,06,35,3.90
2005,09,24,06,36,3.90
2005,09,24,06,37,3.90
2005,09,24,06,38,3.80
2005,09,24,06,39,3.80
2005,09,24,06,40,3.80
2005,09,24,06,41,3.90
2005,09,24,06,42,3.90
2005,09,24,06,43,3.90
2005,09,24,06,44,3.90
2005,09,24,06,45,3.90
2005,09,24,06,46,3.90
2005,09,24,06,47,3.90
2005,09,24,06,48,4.00
2005,09,24,06,49,4.00
2005,09,24,06,50,4.00
2005,09,24,06,51,4.00
2005,09,24,06,52,4.00
2005,09,24,06,53,4.00
2005,09,24,06,54,4.00
2005,09,24,06,55,3.90
2005,09,24,06,56,3.90
2005,09,24,06,57,3.80
2005,09,24,06,58,3.80
2005,09,24,06,59,3.80
2005,09,24,07,00,3.80
2005,09,24,07,01,3.80
2005,09,24,07,02,3.80
2005,09,24,07,03,3.80
2005,09,24,07,04,3.70
2005,09,24,07,05,3.70
2005,09,24,07,06,3.70
2005,09,24,07,07,3.70
2005,09,24,07,08,3.70
2005,09,24,07,09,3.60
2005,09,24,07,10,3.60
2005,09,24,07,11,3.60
2005,09,24,07,12,3.60
2005,09,24,07,13,3.60
2005,09,24,07,14,3.60
2005,09,24,07,15,3.60
2005,09,24,07,16,3.60
2005,09,24,07,17,3.60
2005,09,24,07,18,3.60
2005,09,24,07,19,3.60
2005,09,24,07,20,3.60
2005,09,24,07,21,3.70
2005,09,24,07,22,3.70
2005,09,24,07,23,3.70
2005,09,24,07,24,3.70
2005,09,24,07,25,3.70
2005,09,24,07,26,3.70
2005,09,24,07,27,3.70
2005,09,24,07,28,3.70
2005,09,24,07,29,3.70
2005,09,24,07,30,3.70
2005,09,24,07,31,3.80
2005,09,24,07,32,3.80
2005,09,24,07,33,3.80
2005,09,24,07,34,3.80
2005,09,24,07,35,3.80
2005,09,24,07,36,3.80
2005,09,24,07,37,3.80
2005,09,24,07,38,3.90
2005,09,24,07,39,4.00
2005,09,24,07,40,4.00
2005,09,24,07,41,4.20
2005,09,24,07,42,4.20
2005,09,24,07,43,4.30
2005,09,24,07,44,4.30
2005,09,24,07,45,4.40
2005,09,24,07,46,4.40
2005,09,24,07,47,4.50
2005,09,24,07,48,4.60
2005,09,24,07,49,4.60
2005,09,24,07,50,4.60
2005,09,24,07,51,4.70
2005,09,24,07,52,4.80
2005,09,24,07,53,4.90
2005,09,24,07,54,4.90
2005,09,24,07,55,5.00
2005,09,24,07,56,5.10
2005,09,24,07,57,5.20
2005,09,24,07,58,5.30
2005,09,24,07,59,5.40
2005,09,24,08,00,5.50
2005,09,24,08,01,5.60
2005,09,24,08,02,5.70
2005,09,24,08,03,5.80
2005,09,24,08,04,5.90
2005,09,24,08,05,6.00
2005,09,24,08,06,6.00
2005,09,24,08,07,6.20
2005,09,24,08,08,6.20
2005,09,24,08,09,6.40
2005,09,24,08,10,6.40
2005,09,24,08,11,6.50
2005,09,24,08,12,6.60
2005,09,24,08,13,6.60
2005,09,24,08,14,6.70
2005,09,24,08,15,6.80
2005,09,24,08,16,6.80
2005,09,24,08,17,6.90
2005,09,24,08,18,7.00
2005,09,24,08,19,7.10
2005,09,24,08,20,7.20
2005,09,24,08,21,7.30
2005,09,24,08,22,7.40
2005,09,24,08,23,7.50
2005,09,24,08,24,7.70
2005,09,24,08,25,7.80
2005,09,24,08,26,8.00
2005,09,24,08,27,8.20
2005,09,24,08,28,8.40
2005,09,24,08,29,8.60
2005,09,24,08,30,8.70
2005,09,24,08,31,8.90
2005,09,24,08,32,9.00
2005,09,24,08,33,9.10
2005,09,24,08,34,9.20
2005,09,24,08,35,9.40
2005,09,24,08,36,9.50
2005,09,24,08,37,9.60
2005,09,24,08,38,9.70
2005,09,24,08,39,9.90
2005,09,24,08,40,10.00
2005,09,24,08,41,10.10
2005,09,24,08,42,10.20
2005,09,24,08,43,10.30
2005,09,24,08,44,10.40
2005,09,24,08,45,10.60
2005,09,24,08,46,10.70
2005,09,24,08,47,10.90
2005,09,24,08,48,11.00
2005,09,24,08,49,11.10
2005,09,24,08,50,11.20
2005,09,24,08,51,11.30
2005,09,24,08,52,11.40
2005,09,24,08,53,11.50
2005,09,24,08,54,11.60
2005,09,24,08,55,11.80
2005,09,24,08,56,11.80
2005,09,24,08,57,11.90
2005,09,24,08,58,12.00
2005,09,24,08,59,12.10
2005,09,24,09,00,12.20
2005,09,24,09,01,12.30
2005,09,24,09,02,12.40
2005,09,24,09,03,12.50
2005,09,24,09,04,12.60
2005,09,24,09,05,12.60
2005,09,24,09,06,12.80
2005,09,24,09,07,12.90
2005,09,24,09,08,12.90
2005,09,24,09,09,13.00
2005,09,24,09,10,13.00
2005,09,24,09,11,13.00
2005,09,24,09,12,13.10
2005,09,24,09,13,13.10
2005,09,24,09,14,13.10
2005,09,24,09,15,13.10
2005,09,24,09,16,13.10
2005,09,24,09,17,13.10
2005,09,24,09,18,13.10
2005,09,24,09,19,13.10
2005,09,24,09,20,13.20
2005,09,24,09,21,13.30
2005,09,24,09,22,13.30
2005,09,24,09,23,13.30
2005,09,24,09,24,13.40
2005,09,24,09,25,13.50
2005,09,24,09,26,13.50
2005,09,24,09,27,13.60
2005,09,24,09,28,13.70
2005,09,24,09,29,13.70
2005,09,24,09,30,13.80
2005,09,24,09,31,13.80
2005,09,24,09,32,13.80
2005,09,24,09,33,13.90
2005,09,24,09,34,13.90
2005,09,24,09,35,14.00
2005,09,24,09,36,14.00
2005,09,24,09,37,14.00
2005,09,24,09,38,14.00
2005,09,24,09,39,14.10
2005,09,24,09,40,14.10
2005,09,24,09,41,14.00
2005,09,24,09,42,14.00
2005,09,24,09,43,14.00
2005,09,24,09,44,14.00
2005,09,24,09,45,14.00
2005,09,24,09,46,14.00
2005,09,24,09,47,14.00
2005,09,24,09,48,14.10
2005,09,24,09,49,14.20
2005,09,24,09,50,14.20
2005,09,24,09,51,14.20
2005,09,24,09,52,14.20
2005,09,24,09,53,14.30
2005,09,24,09,54,14.40
2005,09,24,09,55,14.50
2005,09,24,09,56,14.50
2005,09,24,09,57,14.60
2005,09,24,09,58,14.60
2005,09,24,09,59,14.70
2005,09,24,10,00,14.70
2005,09,24,10,01,14.80
2005,09,24,10,02,14.80
2005,09,24,10,03,14.80
2005,09,24,10,04,14.80
2005,09,24,10,05,14.90
2005,09,24,10,06,14.90
2005,09,24,10,07,14.80
2005,09,24,10,08,14.80
2005,09,24,10,09,14.70
2005,09,24,10,10,14.70
2005,09,24,10,11,14.60
2005,09,24,10,12,14.60
2005,09,24,10,13,14.50
2005,09,24,10,14,14.50
2005,09,24,10,15,14.40
2005,09,24,10,16,14.50
2005,09,24,10,17,14.60
2005,09,24,10,18,14.70
2005,09,24,10,19,14.80
2005,09,24,10,20,14.80
2005,09,24,10,21,14.80
2005,09,24,10,22,14.80
2005,09,24,10,23,14.80
2005,09,24,10,24,14.80
2005,09,24,10,25,14.70
2005,09,24,10,26,14.80
2005,09,24,10,27,14.80
2005,09,24,10,28,14.80
2005,09,24,10,29,14.70
2005,09,24,10,30,14.50
2005,09,24,10,31,14.50
2005,09,24,10,32,14.50
2005,09,24,10,33,14.60
2005,09,24,10,34,14.60
2005,09,24,10,35,14.80
2005,09,24,10,36,14.90
2005,09,24,10,37,14.90
2005,09,24,10,38,14.80
2005,09,24,10,39,14.80
2005,09,24,10,40,14.70
2005,09,24,10,41,14.70
2005,09,24,10,42,14.80
2005,09,24,10,43,14.80
2005,09,24,10,44,14.80
2005,09,24,10,45,14.80
2005,09,24,10,46,14.80
2005,09,24,10,47,14.80
2005,09,24,10,48,14.90
2005,09,24,10,49,15.10
2005,09,24,10,50,15.20
2005,09,24,10,51,15.30
2005,09,24,10,52,15.40
2005,09,24,10,53,15.40
2005,09,24,10,54,15.40
2005,09,24,10,55,15.40
2005,09,24,10,56,15.40
2005,09,24,10,57,15.40
2005,09,24,10,58,15.40
2005,09,24,10,59,15.40
2005,09,24,11,00,15.40
2005,09,24,11,01,15.40
2005,09,24,11,02,15.30
2005,09,24,11,03,15.20
2005,09,24,11,04,15.10
2005,09,24,11,05,15.00
2005,09,24,11,06,15.00
2005,09,24,11,07,15.00
2005,09,24,11,08,15.00
2005,09,24,11,09,15.00
2005,09,24,11,10,15.00
2005,09,24,11,11,15.10
2005,09,24,11,12,15.20
2005,09,24,11,13,15.20
2005,09,24,11,14,15.20
2005,09,24,11,15,15.20
2005,09,24,11,16,15.20
2005,09,24,11,17,15.10
2005,09,24,11,18,15.20
2005,09,24,11,19,15.30
2005,09,24,11,20,15.30
2005,09,24,11,21,15.40
2005,09,24,11,22,15.60
2005,09,24,11,23,15.70
2005,09,24,11,24,15.60
2005,09,24,11,25,15.60
2005,09,24,11,26,15.60
2005,09,24,11,27,15.70
2005,09,24,11,28,15.90
2005,09,24,11,29,15.90
2005,09,24,11,30,15.90
2005,09,24,11,31,15.80
2005,09,24,11,32,15.90
2005,09,24,11,33,16.00
2005,09,24,11,34,16.10
2005,09,24,11,35,16.30
2005,09,24,11,36,16.40
2005,09,24,11,37,16.40
2005,09,24,11,38,16.30
2005,09,24,11,39,16.30
2005,09,24,11,40,16.30
2005,09,24,11,41,16.40
2005,09,24,11,42,16.50
2005,09,24,11,43,16.60
2005,09,24,11,44,16.70
2005,09,24,11,45,16.80
2005,09,24,11,46,16.90
2005,09,24,11,47,16.90
2005,09,24,11,48,16.90
2005,09,24,11,49,16.90
2005,09,24,11,50,16.90
2005,09,24,11,51,16.90
2005,09,24,11,52,16.90
2005,09,24,11,53,16.90
2005,09,24,11,54,17.00
2005,09,24,11,55,17.00
2005,09,24,11,56,17.00
2005,09,24,11,57,17.00
2005,09,24,11,58,17.00
2005,09,24,11,59,17.00
2005,09,24,12,00,17.00
2005,09,24,12,01,17.00
2005,09,24,12,02,16.90
2005,09,24,12,03,16.90
2005,09,24,12,04,16.90
2005,09,24,12,05,16.90
2005,09,24,12,06,16.80
2005,09,24,12,07,16.80
2005,09,24,12,08,16.70
2005,09,24,12,09,16.80
2005,09,24,12,10,16.90
2005,09,24,12,11,16.90
2005,09,24,12,12,17.00
2005,09,24,12,13,17.10
2005,09,24,12,14,17.10
2005,09,24,12,15,17.20
2005,09,24,12,16,17.30
2005,09,24,12,17,17.30
2005,09,24,12,18,17.30
2005,09,24,12,19,17.30
2005,09,24,12,20,17.30
2005,09,24,12,21,17.20
2005,09,24,12,22,17.10
2005,09,24,12,23,17.10
2005,09,24,12,24,17.10
2005,09,24,12,25,17.10
2005,09,24,12,26,17.20
2005,09,24,12,27,17.30
2005,09,24,12,28,17.30
2005,09,24,12,29,17.30
2005,09,24,12,30,17.30
2005,09,24,12,31,17.30
2005,09,24,12,32,17.20
2005,09,24,12,33,17.20
2005,09,24,12,34,17.30
2005,09,24,12,35,17.30
2005,09,24,12,36,17.30
2005,09,24,12,37,17.30
2005,09,24,12,38,17.30
2005,09,24,12,39,17.30
2005,09,24,12,40,17.30
2005,09,24,12,41,17.40
2005,09,24,12,42,17.50
2005,09,24,12,43,17.50
2005,09,24,12,44,17.50
2005,09,24,12,45,17.50
2005,09,24,12,46,17.50
2005,09,24,12,47,17.50
2005,09,24,12,48,17.60
2005,09,24,12,49,17.60
2005,09,24,12,50,17.60
2005,09,24,12,51,17.60
2005,09,24,12,52,17.60
2005,09,24,12,53,17.60
2005,09,24,12,54,17.50
2005,09,24,12,55,17.50
2005,09,24,12,56,17.50
2005,09,24,12,57,17.50
2005,09,24,12,58,17.50
2005,09,24,12,59,17.50
2005,09,24,13,00,17.40
2005,09,24,13,01,17.40
2005,09,24,13,02,17.50
2005,09,24,13,03,17.50
2005,09,24,13,04,17.50
2005,09,24,13,05,17.50
2005,09,24,13,06,17.60
2005,09,24,13,07,17.70
2005,09,24,13,08,17.80
2005,09,24,13,09,17.80
2005,09,24,13,10,17.90
2005,09,24,13,11,17.90
2005,09,24,13,12,17.90
2005,09,24,13,13,17.90
2005,09,24,13,14,17.90
2005,09,24,13,15,17.90
2005,09,24,13,16,18.00
2005,09,24,13,17,18.10
2005,09,24,13,18,18.20
2005,09,24,13,19,18.20
2005,09,24,13,20,18.20
2005,09,24,13,21,18.20
2005,09,24,13,22,18.20
2005,09,24,13,23,18.20
2005,09,24,13,24,18.20
2005,09,24,13,25,18.30
2005,09,24,13,26,18.30
2005,09,24,13,27,18.30
2005,09,24,13,28,18.30
2005,09,24,13,29,18.20
2005,09,24,13,30,18.20
2005,09,24,13,31,18.00
2005,09,24,13,32,17.90
2005,09,24,13,33,17.80
2005,09,24,13,34,17.90
2005,09,24,13,35,17.90
2005,09,24,13,36,17.90
2005,09,24,13,37,17.90
2005,09,24,13,38,17.90
2005,09,24,13,39,18.00
2005,09,24,13,40,18.20
2005,09,24,13,41,18.10
2005,09,24,13,42,18.00
2005,09,24,13,43,17.90
2005,09,24,13,44,17.90
2005,09,24,13,45,17.90
2005,09,24,13,46,17.90
2005,09,24,13,47,18.00
2005,09,24,13,48,18.10
2005,09,24,13,49,18.20
2005,09,24,13,50,18.20
2005,09,24,13,51,18.20
2005,09,24,13,52,18.20
2005,09,24,13,53,18.10
2005,09,24,13,54,18.00
2005,09,24,13,55,17.90
2005,09,24,13,56,17.90
2005,09,24,13,57,17.90
2005,09,24,13,58,17.90
2005,09,24,13,59,17.90
2005,09,24,14,00,18.00
2005,09,24,14,01,18.10
2005,09,24,14,02,18.20
2005,09,24,14,03,18.20
2005,09,24,14,04,18.10
2005,09,24,14,05,18.00
2005,09,24,14,06,17.90
2005,09,24,14,07,17.80
2005,09,24,14,08,17.60
2005,09,24,14,09,17.40
2005,09,24,14,10,17.30
2005,09,24,14,11,17.30
2005,09,24,14,12,17.40
2005,09,24,14,13,17.40
2005,09,24,14,14,17.40
2005,09,24,14,15,17.40
2005,09,24,14,16,17.40
2005,09,24,14,17,17.30
2005,09,24,14,18,17.10
2005,09,24,14,19,17.20
2005,09,24,14,20,17.20
2005,09,24,14,21,17.20
2005,09,24,14,22,17.10
2005,09,24,14,23,17.00
2005,09,24,14,24,16.90
2005,09,24,14,25,16.80
2005,09,24,14,26,16.80
2005,09,24,14,27,16.70
2005,09,24,14,28,16.70
2005,09,24,14,29,16.70
2005,09,24,14,30,16.70
2005,09,24,14,31,16.70
2005,09,24,14,32,16.70
2005,09,24,14,33,16.80
2005,09,24,14,34,16.80
2005,09,24,14,35,16.80
2005,09,24,14,36,16.70
2005,09,24,14,37,16.60
2005,09,24,14,38,16.60
2005,09,24,14,39,16.70
2005,09,24,14,40,16.70
2005,09,24,14,41,16.70
2005,09,24,14,42,16.70
2005,09,24,14,43,16.70
2005,09,24,14,44,16.60
2005,09,24,14,45,16.60
2005,09,24,14,46,16.60
2005,09,24,14,47,16.60
2005,09,24,14,48,16.60
2005,09,24,14,49,16.60
2005,09,24,14,50,16.40
2005,09,24,14,51,16.40
2005,09,24,14,52,16.40
2005,09,24,14,53,16.50
2005,09,24,14,54,16.60
2005,09,24,14,55,16.70
2005,09,24,14,56,16.80
2005,09,24,14,57,16.90
2005,09,24,14,58,16.90
2005,09,24,14,59,16.90
2005,09,24,15,00,16.90
2005,09,24,15,01,17.00
2005,09,24,15,02,17.00
2005,09,24,15,03,17.00
2005,09,24,15,04,17.10
2005,09,24,15,05,17.10
2005,09,24,15,06,17.10
2005,09,24,15,07,17.10
2005,09,24,15,08,17.10
2005,09,24,15,09,17.00
2005,09,24,15,10,17.00
2005,09,24,15,11,17.10
2005,09,24,15,12,17.20
2005,09,24,15,13,17.30
2005,09,24,15,14,17.30
2005,09,24,15,15,17.20
2005,09,24,15,16,17.10
2005,09,24,15,17,17.20
2005,09,24,15,18,17.20
2005,09,24,15,19,17.30
2005,09,24,15,20,17.30
2005,09,24,15,21,17.30
2005,09,24,15,22,17.30
2005,09,24,15,23,17.30
2005,09,24,15,24,17.30
2005,09,24,15,25,17.40
2005,09,24,15,26,17.40
2005,09,24,15,27,17.50
2005,09,24,15,28,17.50
2005,09,24,15,29,17.50
2005,09,24,15,30,17.40
2005,09,24,15,31,17.40
2005,09,24,15,32,17.30
2005,09,24,15,33,17.30
2005,09,24,15,34,17.20
2005,09,24,15,35,17.20
2005,09,24,15,36,17.20
2005,09,24,15,37,17.20
2005,09,24,15,38,17.20
2005,09,24,15,39,17.30
2005,09,24,15,40,17.30
2005,09,24,15,41,17.40
2005,09,24,15,42,17.50
2005,09,24,15,43,17.70
2005,09,24,15,44,17.70
2005,09,24,15,45,17.60
2005,09,24,15,46,17.50
2005,09,24,15,47,17.60
2005,09,24,15,48,17.70
2005,09,24,15,49,17.70
2005,09,24,15,50,17.80
2005,09,24,15,51,17.80
2005,09,24,15,52,17.70
2005,09,24,15,53,17.70
2005,09,24,15,54,17.70
2005,09,24,15,55,17.70
2005,09,24,15,56,17.70
2005,09,24,15,57,17.70
2005,09,24,15,58,17.70
2005,09,24,15,59,17.70
2005,09,24,16,00,17.70
2005,09,24,16,01,17.70
2005,09,24,16,02,17.80
2005,09,24,16,03,17.80
2005,09,24,16,04,17.90
2005,09,24,16,05,17.80
2005,09,24,16,06,17.70
2005,09,24,16,07,17.60
2005,09,24,16,08,17.60
2005,09,24,16,09,17.70
2005,09,24,16,10,17.70
2005,09,24,16,11,17.60
2005,09,24,16,12,17.50
2005,09,24,16,13,17.40
2005,09,24,16,14,17.40
2005,09,24,16,15,17.40
2005,09,24,16,16,17.40
2005,09,24,16,17,17.40
2005,09,24,16,18,17.50
2005,09,24,16,19,17.50
2005,09,24,16,20,17.50
2005,09,24,16,21,17.50
2005,09,24,16,22,17.50
2005,09,24,16,23,17.50
2005,09,24,16,24,17.70
2005,09,24,16,25,17.80
2005,09,24,16,26,17.90
2005,09,24,16,27,18.10
2005,09,24,16,28,18.20
2005,09,24,16,29,18.20
2005,09,24,16,30,18.20
2005,09,24,16,31,18.20
2005,09,24,16,32,18.20
2005,09,24,16,33,18.20
2005,09,24,16,34,18.20
2005,09,24,16,35,18.20
2005,09,24,16,36,18.20
2005,09,24,16,37,18.20
2005,09,24,16,38,18.20
2005,09,24,16,39,18.40
2005,09,24,16,40,18.40
2005,09,24,16,41,18.50
2005,09,24,16,42,18.60
2005,09,24,16,43,18.70
2005,09,24,16,44,18.70
2005,09,24,16,45,18.70
2005,09,24,16,46,18.80
2005,09,24,16,47,18.90
2005,09,24,16,48,18.90
2005,09,24,16,49,18.90
2005,09,24,16,50,18.90
2005,09,24,16,51,18.80
2005,09,24,16,52,18.60
2005,09,24,16,53,18.60
2005,09,24,16,54,18.50
2005,09,24,16,55,18.40
2005,09,24,16,56,18.40
2005,09,24,16,57,18.30
2005,09,24,16,58,18.20
2005,09,24,16,59,18.20
2005,09,24,17,00,18.20
2005,09,24,17,01,18.30
2005,09,24,17,02,18.30
2005,09,24,17,03,18.30
2005,09,24,17,04,18.30
2005,09,24,17,05,18.30
2005,09,24,17,06,18.30
2005,09,24,17,07,18.40
2005,09,24,17,08,18.40
2005,09,24,17,09,18.50
2005,09,24,17,10,18.50
2005,09,24,17,11,18.50
2005,09,24,17,12,18.50
2005,09,24,17,13,18.40
2005,09,24,17,14,18.40
2005,09,24,17,15,18.40
2005,09,24,17,16,18.40
2005,09,24,17,17,18.40
2005,09,24,17,18,18.40
2005,09,24,17,19,18.30
2005,09,24,17,20,18.30
2005,09,24,17,21,18.30
2005,09,24,17,22,18.20
2005,09,24,17,23,18.20
2005,09,24,17,24,18.30
2005,09,24,17,25,18.30
2005,09,24,17,26,18.30
2005,09,24,17,27,18.30
2005,09,24,17,28,18.30
2005,09,24,17,29,18.30
2005,09,24,17,30,18.30
2005,09,24,17,31,18.30
2005,09,24,17,32,18.40
2005,09,24,17,33,18.40
2005,09,24,17,34,18.40
2005,09,24,17,35,18.30
2005,09,24,17,36,18.30
2005,09,24,17,37,18.20
2005,09,24,17,38,18.20
2005,09,24,17,39,18.20
2005,09,24,17,40,18.20
2005,09,24,17,41,18.20
2005,09,24,17,42,18.20